Lapse_Rate
7.2 7.7 7.6 7.6 7.6 7.8 7.9 7.4 7.2 7.1 7.0 6.9 6.6 6.1 6.3 6.0 5.1 6.1 5.7 3.2 5.8 6.9 7.7 7.8 7.7 6.7 6.8 7.0 6.5 6.7 6.8 6.8 6.4 6.5 6.5 6.5 6.5 6.5 6.5 6.5 6.5 6.5 6.5 6.5 6.5 6.5 6.5 6.8 6.7 6.5 6.6 6.9 7.1 7.2
7.9 7.6 7.6 7.5 7.8 8.1 7.4 6.8 6.9 6.9 6.9 6.7 6.6 6.1 6.3 6.6 5.5 6.3 6.7 5.8 6.5 6.2 6.8 6.6 6.7 5.1 4.3 5.4 6.8 7.1 6.7 6.7 6.7 6.5 6.5 6.5 6.5 6.5 6.5 6.5 6.5 6.5 6.5 6.5 6.5 6.5 6.6 7.1 6.8 7.4 7.4 7.2 7.3 7.3
7.5 7.2 7.0 7.4 7.4 6.7 6.4 6.8 6.9 6.7 6.2 6.3 6.4 5.9 5.9 5.4 6.0 4.4 3.5 5.5 6.8 7.7 7.5 7.6 6.9 4.5 5.0 5.4 6.2 6.8 6.9 7.5 7.1 7.1 6.6 6.5 6.5 6.5 6.5 6.5 6.5 6.5 6.7 6.5 6.5 6.5 6.6 7.0 7.4 7.7 7.8 7.6 7.8 7.9
7.3 7.4 7.4 7.4 7.1 6.8 6.9 7.0 6.6 6.7 6.5 6.1 6.2 6.1 5.4 5.7 4.3 3.6 5.8 6.2 6.0 6.8 5.9 7.1 8.5 6.8 5.7 6.1 6.1 6.5 7.2 6.1 6.7 7.0 6.6 6.5 6.5 6.7 6.5 6.5 6.5 6.6 6.6 6.5 6.5 6.6 6.9 7.2 7.5 7.7 7.8 8.0 8.0 8.0
7.2 7.0 6.9 6.7 6.6 6.5 6.4 6.5 6.3 6.3 6.2 6.2 5.9 5.6 4.4 4.2 3.4 4.4 4.9 5.7 6.0 6.3 6.6 6.9 8.2 7.9 8.0 7.2 7.1 7.1 6.8 6.8 7.1 6.6 6.5 6.5 6.6 6.6 6.5 6.5 6.5 6.8 6.5 6.5 6.5 6.8 6.8 7.1 7.7 8.0 7.7 7.8 8.0 7.9
6.4 6.5 6.0 5.8 6.2 6.4 6.8 6.6 6.1 5.9 5.7 5.7 4.7 4.0 3.2 3.5 3.9 6.1 6.9 7.0 5.7 5.1 7.3 6.5 8.0 7.9 8.5 8.6 8.2 8.0 7.8 7.6 7.4 6.9 6.6 6.9 7.5 6.7 6.5 6.5 6.7 7.3 7.5 7.5 6.8 7.7 7.6 7.8 8.0 8.2 7.9 8.0 8.1 7.6
5.3 5.4 6.0 5.5 5.1 5.4 5.5 5.5 5.2 4.5 3.6 3.2 3.0 3.0 2.9 3.5 4.5 5.6 5.7 3.8 -0.0 3.8 6.6 6.3 6.5 7.2 7.3 8.2 7.9 7.9 7.8 7.4 7.5 7.1 6.7 6.8 6.8 6.8 6.5 6.5 6.8 7.4 7.6 7.8 8.0 7.8 7.3 7.7 7.6 8.2 8.2 8.2 8.1 8.4
4.3 3.2 3.0 2.9 3.3 3.8 3.6 3.0 2.4 2.5 3.0 3.0 2.7 2.9 3.2 2.7 3.0 4.3 2.6 1.8 0.7 6.9 7.3 6.5 6.5 6.6 7.7 6.5 6.8 7.5 7.0 7.3 7.3 7.0 6.9 6.6 7.0 6.6 6.5 6.7 7.2 7.5 7.7 7.7 7.8 7.9 7.9 8.2 8.2 8.2 8.4 8.4 8.1 7.9
2.6 2.1 2.2 2.1 2.4 2.0 2.0 2.1 2.4 2.3 2.4 2.6 2.9 3.3 4.7 5.3 5.8 4.9 0.8 1.0 5.2 5.5 6.6 5.9 6.5 6.5 7.9 7.2 6.4 7.1 7.4 6.5 7.2 6.5 6.5 6.8 6.5 6.5 6.5 6.9 7.2 7.4 7.4 7.5 8.0 8.1 8.1 7.9 8.0 8.1 8.2 8.1 7.9 7.9
2.6 1.9 1.9 2.0 1.9 1.9 2.0 2.2 2.1 2.2 2.9 3.2 5.2 7.4 5.2 4.4 1.5 2.0 6.3 5.9 5.7 6.1 7.2 6.5 6.8 6.5 7.1 6.5 6.8 6.7 6.3 6.5 6.5 6.5 7.1 6.5 6.5 7.1 7.5 7.7 7.8 7.9 8.0 8.0 7.4 7.3 7.6 7.6 7.8 7.9 8.0 8.2 8.2 8.2
2.4 2.8 2.1 2.0 2.4 2.4 2.4 2.6 2.9 3.2 3.5 7.6 6.0 5.3 5.0 1.9 5.9 6.4 5.5 5.9 6.4 6.5 7.0 6.9 6.9 6.5 7.0 6.5 6.5 6.7 6.5 6.5 6.5 6.5 6.5 6.5 6.5 6.7 7.7 7.8 8.1 8.2 8.2 8.2 8.0 8.2 8.3 8.1 7.8 7.7 8.1 7.8 7.2 6.2
2.5 1.8 2.2 2.4 2.6 3.0 2.6 2.7 3.2 6.5 6.7 5.6 5.9 6.1 6.7 6.9 6.5 6.3 6.5 6.6 6.5 6.5 6.6 6.6 6.5 7.2 6.8 7.4 6.6 6.5 6.5 6.5 6.5 6.7 6.5 6.5 6.5 7.3 7.6 7.7 7.9 8.1 8.1 8.2 8.4 8.2 8.1 8.3 8.4 8.3 8.2 7.3 6.4 5.3
1.8 1.4 1.4 1.5 1.5 2.3 2.3 1.6 1.2 1.8 1.4 6.2 4.4 2.7 6.3 5.9 6.5 6.5 6.5 6.5 6.5 6.5 6.4 6.5 6.5 6.8 7.2 7.2 6.2 6.5 6.5 6.5 6.4 6.5 6.5 6.5 6.9 7.4 7.6 7.9 8.0 8.3 8.0 8.0 8.4 8.5 8.4 7.5 7.1 6.2 5.5 5.9 6.5 5.8
1.6 1.9 1.3 1.3 1.3 1.2 0.8 1.4 1.3 3.4 4.6 4.1 5.8 6.5 6.5 6.5 6.5 6.5 6.5 6.5 6.0 5.5 6.2 6.3 6.5 6.6 6.7 6.5 6.5 6.5 6.5 6.5 6.5 6.5 6.5 6.5 7.0 7.4 7.9 8.0 8.0 7.4 5.8 7.5 8.1 7.4 5.7 4.8 4.4 3.9 3.1 3.8 3.7 4.7
2.1 1.6 1.6 1.2 1.3 1.4 0.7 0.4 1.3 3.3 3.9 6.4 6.8 6.5 6.5 6.7 6.4 6.0 5.9 6.2 5.3 5.8 6.5 6.6 6.6 6.8 6.5 6.5 6.5 6.5 6.5 6.5 6.5 6.5 6.5 6.6 6.5 7.5 7.8 7.9 7.1 6.2 5.6 7.1 7.0 5.0 4.6 5.0 5.7 5.5 5.1 5.0 4.1 2.7
2.5 2.2 0.9 1.4 1.8 1.5 1.0 2.0 1.0 3.1 5.8 6.4 6.3 6.5 6.2 6.5 6.5 6.1 5.8 6.0 5.3 5.6 5.9 7.0 6.5 6.5 6.5 6.5 6.5 6.5 6.5 6.5 6.5 6.5 6.4 6.2 6.6 7.7 7.9 7.4 6.8 7.8 7.7 7.1 5.9 5.7 5.3 5.8 6.3 6.1 5.6 5.1 3.6 3.0
2.5 2.2 1.6 1.8 2.2 2.6 2.1 2.6 3.1 5.3 6.5 6.7 6.7 5.7 6.2 6.3 6.7 6.3 5.5 5.5 5.2 6.4 6.5 6.5 6.5 6.5 6.5 6.5 6.5 6.5 6.5 6.5 6.8 6.6 6.1 6.3 6.8 8.0 7.6 7.0 6.5 7.2 7.9 7.8 7.8 7.9 6.9 6.3 6.2 7.0 7.8 6.7 7.1 7.8
3.1 4.2 2.9 2.9 3.3 3.7 3.7 6.4 6.8 6.7 6.7 6.8 6.7 6.7 6.2 5.5 6.4 6.1 5.4 4.9 5.4 6.8 6.5 6.5 6.8 6.5 6.5 6.5 6.5 6.5 6.8 6.6 6.4 6.3 6.0 6.2 7.6 7.7 7.7 8.4 8.3 8.0 7.5 7.7 7.5 7.3 7.1 7.2 8.3 8.2 8.0 7.0 8.2 8.2
3.4 3.1 2.6 2.6 4.5 4.4 6.0 6.5 8.2 6.8 7.0 6.6 6.3 6.1 6.4 6.3 6.1 5.8 5.8 6.2 6.8 7.3 7.4 6.9 6.5 6.5 6.5 6.8 6.9 6.6 6.7 6.7 6.1 5.5 5.2 5.2 5.7 6.0 6.4 6.6 7.1 7.1 7.8 8.2 8.4 8.3 6.9 6.8 6.8 7.3 6.4 6.3 6.3 7.0
2.8 2.5 1.8 3.1 4.2 5.6 6.6 7.0 8.4 7.3 6.8 6.9 6.6 6.8 6.7 6.7 6.5 5.9 5.9 7.1 7.1 7.4 6.9 6.5 6.5 6.9 6.8 6.5 5.7 5.9 6.7 6.1 6.3 6.3 5.9 5.3 4.8 5.0 5.7 6.5 7.4 7.8 7.4 6.6 6.6 8.0 8.6 8.4 7.6 6.7 5.0 5.5 5.3 5.1
4.3 3.2 2.9 3.9 6.0 7.8 7.7 7.4 7.4 7.4 7.2 7.0 6.8 7.4 7.1 7.4 7.1 6.6 7.0 7.9 7.1 6.9 6.7 6.9 6.9 6.7 6.5 5.8 4.9 4.2 4.9 7.3 7.4 7.7 7.6 7.0 7.1 6.9 7.6 8.1 7.8 8.4 8.2 8.2 8.0 6.8 6.7 6.8 6.1 5.4 5.2 5.8 4.9 6.4
4.0 2.8 3.4 4.2 6.1 6.3 7.4 7.3 7.5 7.7 7.3 7.1 7.3 7.4 6.9 6.8 6.8 6.9 7.4 7.2 7.1 7.2 7.3 7.2 6.9 7.0 6.9 6.1 5.5 5.5 5.2 4.8 5.1 5.3 6.2 7.3 7.6 7.7 7.6 7.4 7.2 6.9 6.9 7.6 7.6 7.0 7.1 4.9 3.9 4.3 5.1 5.2 6.2 8.6
3.4 4.3 3.7 4.7 5.9 6.6 6.8 8.1 6.8 7.3 6.5 6.7 7.1 6.6 6.6 6.8 7.2 7.9 6.9 7.3 7.4 7.4 7.4 7.7 7.2 7.2 7.4 7.0 6.3 5.5 6.1 6.3 6.1 6.0 5.7 5.6 5.7 6.0 5.9 6.1 7.0 7.2 7.0 6.5 6.4 5.8 5.1 4.0 4.5 4.4 6.4 7.0 8.1 8.6
3.7 3.3 5.0 7.0 7.2 6.6 7.5 7.0 7.4 7.1 7.0 6.6 6.5 6.5 6.6 6.9 7.4 6.9 6.5 7.0 7.5 7.8 7.8 7.9 7.2 7.2 7.5 6.7 6.1 6.1 6.9 6.8 6.5 6.9 7.2 6.8 6.5 6.6 6.0 5.4 5.0 5.3 5.8 6.0 5.6 5.6 6.2 5.9 5.1 7.0 7.7 7.1 8.4 8.3
5.7 6.6 6.5 6.6 7.1 6.7 6.5 6.5 6.5 6.5 6.5 6.5 6.5 6.5 6.5 7.2 6.5 6.5 6.5 7.0 7.5 7.6 7.6 7.3 8.0 7.6 7.7 7.6 7.6 6.4 6.1 6.7 6.5 6.1 6.6 7.1 6.8 6.8 6.9 6.3 5.2 4.7 4.8 5.1 5.0 5.2 5.9 6.3 7.0 7.4 7.0 8.2 8.3 8.3
6.5 7.1 6.7 6.7 6.7 6.6 6.5 6.5 6.5 6.5 6.5 6.5 6.5 6.9 7.1 6.5 6.5 6.5 6.7 7.3 7.6 7.7 7.7 7.5 7.5 7.9 7.5 7.4 7.3 5.9 5.6 6.5 5.8 4.5 4.5 4.9 5.6 6.9 7.7 8.0 7.5 5.5 4.6 4.2 4.0 4.4 5.9 6.9 7.1 7.6 8.2 8.5 8.1 8.2
6.5 6.5 7.3 7.8 7.5 7.3 6.8 7.0 7.1 6.6 6.5 6.5 6.5 6.5 6.5 6.5 6.5 6.7 7.8 7.7 7.7 7.9 7.6 7.2 8.0 8.1 8.0 7.6 6.2 5.6 5.2 5.2 4.9 5.0 5.4 5.2 4.7 4.5 4.4 4.8 4.4 3.5 4.4 4.1 3.8 4.0 4.6 5.8 7.3 8.1 8.4 8.6 8.5 8.1
7.2 7.1 6.5 7.0 7.1 7.4 6.5 6.6 6.5 6.5 6.5 7.2 6.9 6.5 6.5 6.5 6.5 7.6 7.9 8.1 8.2 8.6 8.1 7.1 6.2 6.2 6.3 6.8 7.3 7.6 7.7 6.2 5.5 5.9 5.9 6.1 6.2 5.3 5.0 4.8 3.6 3.2 4.7 5.8 5.4 5.7 6.2 7.0 7.0 8.2 8.3 8.1 8.0 8.6
7.0 7.2 7.3 6.5 6.9 6.9 6.9 6.7 6.7 7.2 7.4 7.3 6.6 6.5 6.9 7.7 7.8 8.0 8.2 8.1 7.9 8.0 8.0 8.0 8.0 7.9 7.3 6.7 6.0 5.7 5.1 5.3 7.3 7.2 7.8 7.9 8.0 7.2 6.0 5.9 7.4 8.1 8.6 8.2 8.7 9.0 9.0 8.0 7.7 8.2 7.2 7.4 7.6 8.6
7.1 7.6 7.0 6.9 6.6 6.5 7.1 7.3 7.3 7.4 7.8 7.9 8.1 8.0 7.9 8.1 7.9 8.0 8.0 7.8 7.9 7.4 7.3 7.7 7.9 8.1 7.9 8.1 8.2 6.1 4.5 3.8 3.5 4.2 5.4 5.8 5.9 6.2 7.3 8.5 8.2 8.2 8.3 8.2 8.6 8.7 8.8 8.8 8.3 8.4 8.5 8.5 8.6 8.3
7.5 7.5 7.1 7.0 6.8 7.3 7.4 7.6 7.7 7.8 7.9 7.8 7.8 7.7 7.6 8.0 8.0 7.3 7.0 8.1 8.0 7.8 8.1 8.1 8.2 8.1 7.4 6.0 6.3 7.1 7.5 5.1 3.9 3.7 3.6 4.5 5.8 7.4 8.3 7.6 8.2 8.1 8.5 8.5 8.6 8.5 8.8 8.7 8.7 8.7 8.6 8.5 8.5 8.5
7.6 7.2 6.9 6.5 6.9 7.5 7.7 7.4 7.3 7.3 7.5 7.4 7.4 7.8 7.7 7.6 7.3 8.1 6.5 7.6 8.3 8.2 7.6 8.2 8.1 7.3 5.6 6.0 6.1 5.5 2.4 5.2 5.9 4.6 4.5 4.1 4.4 4.8 5.1 5.3 5.6 7.4 8.6 8.7 8.7 8.7 8.6 8.6 8.6 8.6 8.6 8.5 8.3 7.6
7.4 7.5 7.4 7.2 7.0 7.0 7.5 7.5 7.2 7.1 7.3 7.2 7.3 7.6 7.6 7.5 7.1 8.0 8.0 7.2 7.1 7.7 7.6 7.0 6.5 6.2 5.5 5.5 5.4 5.5 5.8 6.7 5.5 5.1 4.7 3.9 3.3 3.5 3.8 4.9 5.2 5.7 6.2 6.6 7.0 7.9 8.6 8.6 8.6 8.6 8.8 7.9 7.9 7.7
Wind_Speed
34 33 31 29 28 28 28 27 23 22 22 21 23 26 26 26 28 15 9 12 4 3 14 20 17 12 13 13 7 7 8 2 3 3 3 2 2 3 2 8 7 7 6 3 2 2 6 7 6 2 4 5 7 6
29 28 27 26 27 27 25 24 22 21 22 22 24 27 26 30 25 22 7 10 10 9 3 10 10 14 9 7 10 13 3 9 5 4 2 3 2 2 2 3 10 4 5 4 7 4 5 5 8 6 6 6 7 7
25 26 25 25 25 23 23 23 23 23 18 19 23 25 26 26 24 21 9 6 7 3 4 4 9 7 9 7 5 4 2 6 5 3 3 2 3 3 3 3 2 5 4 2 2 4 8 7 12 10 9 7 7 7
21 21 21 21 21 21 20 21 21 20 21 15 25 27 25 23 25 21 9 4 4 2 2 5 2 4 6 4 7 5 5 6 6 5 3 3 3 4 3 2 3 2 7 5 5 3 11 12 11 7 6 8 7 10
18 17 17 17 17 18 16 16 16 12 21 25 24 21 22 22 20 9 6 4 3 5 4 3 4 9 3 3 4 3 7 8 3 3 3 2 2 3 2 1 1 4 0 3 1 6 6 9 8 8 9 10 11 13
16 15 10 9 13 14 17 15 22 26 24 24 24 20 20 19 20 7 4 7 7 5 3 3 2 4 4 7 8 7 5 4 3 3 2 3 3 0 3 3 6 8 8 6 4 6 11 12 13 14 13 13 14 13
15 17 19 17 22 23 24 23 23 23 21 19 19 21 24 24 11 4 1 1 8 4 3 3 3 1 3 8 4 4 5 4 3 3 2 3 2 3 3 2 10 7 6 8 5 5 7 7 8 12 13 13 14 13
18 18 17 17 19 22 23 22 20 21 23 24 23 22 23 21 10 2 3 6 4 3 3 3 1 3 4 2 2 4 2 3 4 3 2 2 3 1 2 9 10 6 8 8 10 12 14 13 14 12 11 11 13 11
23 22 20 20 21 21 22 23 24 24 24 24 23 23 5 2 2 2 3 9 3 4 2 2 3 4 2 3 1 2 1 3 1 2 2 3 2 2 6 9 8 3 6 11 10 10 11 13 13 12 12 11 9 7
27 26 25 24 24 25 24 25 26 27 29 30 19 5 2 2 5 3 4 1 3 3 4 1 2 2 1 2 2 2 1 3 2 2 3 2 2 6 5 6 5 5 10 11 12 11 11 11 11 10 9 9 10 9
30 27 27 24 23 21 22 26 28 29 24 6 3 3 4 5 2 3 3 2 2 2 1 1 3 3 3 3 3 1 2 1 2 2 3 3 3 5 6 6 6 10 10 6 10 12 11 11 8 9 10 10 8 9
27 27 27 26 21 18 15 10 9 3 1 5 9 5 3 0 3 4 2 1 1 2 0 1 3 3 1 1 3 1 3 2 3 5 2 3 3 10 8 7 8 9 11 14 13 12 10 9 9 10 9 8 8 7
27 27 28 27 22 18 15 11 11 12 5 4 5 4 2 4 5 2 4 2 3 2 1 2 3 2 2 3 3 2 3 3 5 2 2 2 8 8 8 10 11 11 11 12 12 12 13 12 11 9 8 5 6 9
21 25 30 28 23 21 18 12 6 3 5 4 4 5 3 2 3 3 3 3 1 1 4 3 2 2 2 3 2 4 2 2 3 4 3 4 9 9 9 10 11 11 7 10 12 11 10 10 10 8 7 6 6 7
18 21 22 25 19 14 14 14 14 6 5 4 3 4 3 0 2 1 1 2 3 2 0 2 3 3 3 3 2 3 3 4 3 1 2 6 9 10 11 10 11 7 7 8 9 8 8 8 8 9 7 7 7 4
9 14 13 22 16 17 13 8 8 4 4 4 6 3 0 2 2 3 3 2 4 3 2 1 3 3 3 2 2 1 4 2 2 2 4 8 8 8 10 10 9 8 8 10 8 8 7 6 6 8 7 6 4 5
17 5 18 17 14 11 17 5 4 6 4 4 4 3 2 4 4 2 3 3 4 2 2 1 4 4 1 2 2 3 3 2 4 4 4 7 10 10 10 9 8 8 9 9 9 8 8 7 5 4 5 7 5 6
4 5 15 13 8 7 3 4 4 4 6 4 4 3 2 3 2 3 2 2 2 2 2 3 2 2 3 2 3 2 3 4 4 5 6 8 6 9 9 9 9 9 9 8 8 7 6 4 4 5 6 6 4 6
9 12 18 16 6 4 4 4 4 4 5 2 2 2 3 2 4 3 3 3 2 2 2 2 4 4 3 3 3 5 5 3 4 4 5 6 7 8 8 9 9 9 8 7 6 6 6 8 6 5 5 4 4 5
2 20 21 15 8 3 4 3 3 4 3 2 2 3 3 2 1 3 5 6 7 3 6 5 4 3 3 4 4 2 6 6 6 6 6 5 6 8 7 6 6 8 7 8 6 4 4 5 5 5 4 4 5 5
7 8 10 6 4 6 4 3 4 3 3 3 1 2 3 4 4 4 4 5 5 4 3 4 3 3 5 6 6 7 7 1 3 5 7 6 5 6 6 6 6 5 5 4 5 5 5 5 4 4 4 4 4 4
5 11 3 7 4 4 5 7 2 2 3 2 2 3 3 2 3 4 2 6 4 4 4 4 6 6 8 11 9 10 6 8 9 8 10 8 6 6 6 5 6 6 6 5 5 4 5 4 4 4 4 4 4 4
5 5 4 6 5 5 3 4 4 4 3 2 1 3 3 3 3 2 4 4 3 5 5 5 6 8 9 10 11 13 12 10 8 8 8 8 8 8 7 7 6 6 5 5 4 4 4 2 4 4 4 4 5 4
6 5 5 5 6 4 2 4 3 3 3 3 3 3 3 3 2 3 4 3 5 7 8 10 6 5 7 9 8 9 8 7 8 8 6 7 7 7 7 6 6 6 5 4 4 4 3 4 3 5 4 5 5 4
6 7 5 7 4 3 4 3 4 3 4 4 3 4 2 2 2 3 3 3 7 7 8 7 7 8 6 6 7 8 11 7 6 8 7 5 6 6 6 6 6 6 5 4 5 5 4 4 4 5 6 5 6 6
7 9 6 7 4 4 4 3 3 4 2 3 4 2 2 2 3 4 3 5 6 6 7 7 7 6 7 7 6 6 7 5 6 7 7 7 7 6 4 3 4 5 6 5 5 6 6 5 5 6 6 7 6 6
6 6 4 1 2 0 3 3 2 3 5 4 2 2 1 3 4 3 4 5 4 5 6 6 6 7 6 6 6 6 6 7 7 6 5 6 7 7 6 6 6 4 5 6 6 6 7 7 7 7 7 6 6 6
5 5 5 5 4 5 3 3 4 5 4 4 2 5 3 5 4 3 4 4 4 5 5 6 6 6 7 7 6 5 4 4 4 5 5 6 6 5 5 5 3 0 2 3 3 4 5 6 7 8 8 7 6 6
4 4 3 5 5 5 6 6 4 3 5 4 3 3 3 3 4 4 3 4 6 6 5 5 4 4 5 6 6 7 6 7 6 5 6 4 3 5 5 4 4 4 4 5 6 6 6 5 6 6 7 6 6 6
5 5 3 5 4 4 4 5 5 4 5 5 4 4 6 4 5 6 6 6 5 5 5 4 5 5 5 5 4 6 6 7 6 6 5 4 5 5 5 4 5 5 5 6 6 7 8 6 7 7 6 5 5 5
3 4 3 4 4 3 3 5 5 6 4 6 8 7 6 4 4 6 6 5 5 5 4 5 6 7 6 6 6 5 4 5 4 5 4 4 5 5 5 5 6 8 5 6 6 7 7 7 6 7 8 9 8 6
4 5 3 3 3 2 2 3 1 2 3 3 3 3 4 3 3 3 5 6 5 6 6 7 6 5 5 5 4 3 1 3 4 5 7 5 6 8 11 10 10 9 6 6 7 7 8 9 7 8 8 10 9 7
2 3 3 2 2 2 3 3 1 3 3 3 3 3 4 4 4 2 3 5 5 5 5 5 4 4 3 3 4 3 3 6 8 7 6 3 3 7 9 10 11 10 9 8 8 9 10 11 9 9 8 7 8 6
Wind_Direction
152 158 165 170 173 176 176 179 182 183 186 183 181 185 183 184 203 203 236 246 269 274 210 193 190 196 209 151 123 255 188 165 138 126 127 149 113 208 250 181 161 171 162 184 161 154 263 134 131 157 56 11 17 354
148 154 161 165 171 173 175 176 179 186 187 184 179 186 182 193 190 190 239 228 219 245 114 73 76 51 48 1 128 188 175 157 166 133 73 77 116 32 51 195 210 193 187 178 172 204 146 110 65 67 36 23 20 6
148 156 161 166 171 173 174 178 181 180 162 181 183 187 190 190 188 193 219 244 231 229 96 100 61 35 28 12 21 141 241 166 151 71 120 112 150 170 149 217 107 196 87 164 69 191 169 108 87 54 28 9 2 16
148 155 161 165 169 176 179 176 175 176 185 185 182 184 184 183 186 191 221 217 283 317 99 69 50 20 338 22 46 349 118 50 95 97 100 127 131 203 194 263 144 16 139 206 204 272 96 86 58 36 22 31 22 54
154 152 157 161 162 163 165 164 193 207 215 197 184 172 175 170 176 190 255 298 312 295 121 107 93 7 23 123 115 95 119 124 117 104 96 138 98 101 40 21 232 170 53 158 77 72 60 79 59 47 65 57 52 73
141 136 152 204 211 196 189 194 189 160 157 164 166 160 157 161 160 182 228 225 227 245 130 109 35 14 109 143 147 150 168 180 97 97 118 79 55 324 131 170 88 91 76 49 97 77 92 98 75 63 73 73 70 75
181 179 184 163 160 159 157 154 151 151 155 153 155 161 165 169 174 231 159 11 338 302 101 97 109 8 355 83 56 89 44 37 90 88 81 136 118 110 145 151 127 108 96 85 69 126 104 149 104 84 88 93 92 92
118 140 149 151 149 149 149 153 155 154 152 155 159 159 166 160 171 55 5 2 318 74 53 97 181 129 332 85 90 341 68 79 37 97 112 118 73 30 134 114 118 117 118 106 79 61 104 108 100 104 109 113 102 97
77 85 109 135 148 146 144 146 149 150 146 144 141 133 123 311 88 136 243 273 54 72 74 103 155 146 76 66 74 64 42 82 42 89 106 99 148 133 107 140 126 102 133 109 97 106 112 111 116 120 114 110 117 127
59 72 77 94 112 124 130 137 141 140 142 137 132 141 84 34 139 141 191 78 60 58 24 45 315 126 357 117 126 116 337 140 117 68 123 57 81 90 88 88 125 152 124 131 129 125 125 126 125 134 109 89 77 76
52 59 65 73 89 100 113 124 135 144 144 157 92 72 80 163 200 18 51 73 107 117 28 32 149 122 348 120 129 320 134 148 119 132 182 151 189 156 146 127 119 117 125 115 115 135 136 131 126 114 100 89 80 77
52 55 63 60 57 62 66 102 119 112 79 98 106 110 144 114 86 91 53 91 65 144 101 82 50 83 50 237 100 160 101 133 130 135 116 178 117 138 142 139 119 123 123 126 126 114 113 110 97 96 98 88 93 94
51 50 54 43 43 62 65 69 80 108 166 73 56 64 28 339 41 123 157 127 119 133 175 143 110 118 102 70 75 101 103 114 115 124 182 54 134 143 137 122 119 120 113 113 116 104 91 78 69 88 84 54 97 73
53 52 46 37 26 19 28 29 53 149 63 63 55 70 44 78 44 19 359 63 72 253 113 107 70 77 110 63 89 89 37 142 153 194 183 139 151 146 135 121 120 105 93 102 106 110 110 104 96 87 87 74 64 62
51 54 52 19 9 27 15 34 34 52 47 71 55 70 60 54 7 324 340 66 359 326 78 115 72 77 57 93 60 115 156 171 219 172 111 145 145 145 136 123 110 105 100 110 111 104 107 119 111 100 78 78 86 82
22 41 18 355 3 9 11 37 30 52 59 56 45 87 96 143 59 38 24 49 0 335 285 77 105 79 72 92 131 112 168 163 99 84 120 136 137 141 131 118 138 144 119 111 115 113 99 94 105 104 100 80 121 98
53 42 340 339 345 11 36 63 45 49 60 50 45 5 26 64 58 40 16 4 320 357 39 354 57 51 138 69 83 19 36 60 105 100 118 126 131 133 116 107 107 113 117 123 126 117 108 107 126 106 78 54 34 92
53 3 360 354 353 35 36 44 71 64 61 32 65 12 33 27 56 36 346 313 10 50 343 55 144 78 35 53 84 97 92 74 80 107 111 117 109 112 123 134 128 121 108 103 106 107 106 138 101 73 56 32 20 34
42 16 7 12 41 75 64 43 31 80 57 51 46 40 53 50 39 32 343 336 354 341 94 34 45 37 49 27 27 90 96 88 86 69 70 75 89 98 112 108 109 107 116 128 129 101 90 71 68 56 43 24 17 21
112 25 358 5 24 75 68 39 37 68 66 69 38 33 58 54 13 341 12 30 35 50 44 41 31 21 8 356 345 332 112 114 113 103 95 90 93 95 94 105 110 104 99 97 75 67 118 104 69 52 43 26 19 357
26 349 351 22 49 54 66 34 61 66 104 69 359 67 66 50 35 21 35 26 52 30 69 32 50 45 30 33 21 40 28 177 142 149 139 128 121 113 108 102 117 124 103 89 104 91 66 63 50 30 20 22 15 316
3 343 49 23 68 54 58 8 66 115 66 108 65 60 60 55 49 21 19 49 59 30 37 22 21 39 43 37 32 25 35 49 60 60 79 107 117 113 106 102 103 89 78 66 72 72 74 53 42 11 353 10 321 326
343 31 42 29 70 48 30 346 53 23 74 84 95 72 46 59 24 307 83 58 68 12 37 56 57 54 62 49 45 35 32 53 60 60 66 73 75 75 72 61 71 99 96 70 60 61 62 2 58 355 333 351 327 338
37 48 37 39 39 69 51 39 12 57 43 16 72 70 41 37 332 68 72 70 43 22 22 22 14 117 79 58 49 34 32 50 57 52 64 82 81 76 80 82 75 63 56 65 55 34 34 17 355 348 1 333 325 343
64 18 9 44 16 52 59 48 23 53 62 22 83 68 53 307 64 60 66 81 51 30 12 9 46 38 65 76 62 48 31 44 66 67 42 75 104 104 95 90 79 62 37 32 28 6 4 354 349 352 338 319 332 332
69 27 36 19 26 30 22 64 51 34 38 69 57 56 310 57 62 61 62 34 50 30 18 11 24 64 54 39 50 40 22 16 83 73 44 32 30 41 56 64 105 80 33 29 7 351 342 352 338 328 321 324 322 322
57 48 49 12 322 92 92 63 40 50 42 45 52 350 253 83 76 76 92 31 53 46 39 29 38 54 64 67 63 55 48 48 65 81 83 68 59 49 45 43 39 27 346 21 3 356 337 332 329 327 317 315 333 350
54 28 33 11 45 20 58 45 41 35 43 348 289 34 40 27 63 50 59 62 74 81 74 64 57 55 53 47 44 43 65 106 118 125 116 105 90 77 55 47 88 148 319 24 353 324 331 325 327 317 327 336 330 327
42 347 356 19 53 52 28 21 56 49 347 328 20 61 76 58 20 47 47 37 37 52 54 60 75 97 94 78 54 46 36 17 28 35 32 33 58 53 25 8 357 358 352 339 330 327 325 308 301 310 302 304 297 295
28 342 34 38 41 56 49 18 87 67 41 51 106 108 95 94 44 33 42 40 50 60 56 50 49 44 34 58 79 85 61 45 33 26 11 9 354 348 331 346 355 339 340 336 328 326 320 334 332 310 310 299 309 344
345 344 63 46 63 49 58 103 115 98 62 53 49 92 113 124 99 51 25 14 43 25 72 80 59 40 45 36 23 16 66 59 46 44 9 319 324 321 339 347 336 334 322 317 323 324 321 316 315 318 315 322 325 316
31 22 4 44 91 69 17 12 56 63 120 91 96 122 171 148 86 72 4 355 59 66 36 39 53 57 32 15 13 76 178 327 358 10 345 341 332 336 336 339 323 312 316 318 311 307 311 316 313 309 309 313 335 346
79 61 45 45 129 115 52 316 97 103 64 70 64 51 43 35 67 91 97 46 38 35 32 27 23 21 29 359 7 326 315 4 358 322 334 1 326 311 312 319 330 326 325 325 322 315 311 311 312 318 318 314 302 326